This is the latest recevied weather packets stored in our database for station/object KD2ZLA. If no packets are shown the sender has not sent any weather packets the latest 1 day(s).
| Time | Temp. | Humidity | Pressure | Rain* | Wind** | Luminosity | Snow |
|---|---|---|---|---|---|---|---|
| 1836274656 | 5° C | 93% | 1024.2 hPa | 0 mm | 0 m/s | 0 W/m² | - |
| 1836274509 | 4.44° C | 93% | 1024.3 hPa | 0 mm | 0.45 m/s, 89° | 0 W/m² | - |
| 1836274354 | 5° C | 93% | 1024.1 hPa | 0 mm | 0.89 m/s, 96° | 0 W/m² | - |
| 1836274208 | 5° C | 93% | 1024.4 hPa | 0 mm | 0 m/s | 0 W/m² | - |
| 1836274053 | 5° C | 93% | 1024.2 hPa | 0 mm | 0.45 m/s, 143° | 0 W/m² | - |
| 1778031114 | 9.44° C | 93% | 1008.9 hPa | 2.29 mm | 1.79 m/s, 249° | 0 W/m² | - |
| 1778030811 | 9.44° C | 93% | 1008.8 hPa | 2.29 mm | 2.24 m/s, 236° | 0 W/m² | - |
| 1778030508 | 9.44° C | 92% | 1008.7 hPa | 1.78 mm | 1.34 m/s, 263° | 0 W/m² | - |
| 1778030205 | 9.44° C | 92% | 1008.7 hPa | 1.78 mm | 2.24 m/s, 207° | 0 W/m² | - |
| 1778029901 | 9.44° C | 92% | 1008.6 hPa | 2.29 mm | 0.89 m/s, 240° | 0 W/m² | - |
| 1778029600 | 9.44° C | 92% | 1008.4 hPa | 2.29 mm | 1.79 m/s, 248° | 0 W/m² | - |
| 1778029297 | 9.44° C | 91% | 1008.7 hPa | 1.78 mm | 1.34 m/s, 289° | 0 W/m² | - |
| 1778028993 | 10° C | 91% | 1008.5 hPa | 1.27 mm | 0.89 m/s, 259° | 0 W/m² | - |
| 1778028690 | 10° C | 90% | 1008.3 hPa | 1.27 mm | 1.34 m/s, 261° | 0 W/m² | - |
| 1778028386 | 10° C | 89% | 1008.1 hPa | 1.78 mm | 1.34 m/s, 257° | 0 W/m² | - |
| 1778028084 | 10° C | 89% | 1008.2 hPa | 2.29 mm | 0.89 m/s, 276° | 0 W/m² | - |
| 1778027780 | 10° C | 88% | 1008.1 hPa | 2.29 mm | 1.79 m/s, 233° | 0 W/m² | - |
| 1778027476 | 10° C | 88% | 1008 hPa | 2.29 mm | 1.34 m/s, 330° | 0 W/m² | - |
| 1778027172 | 10° C | 87% | 1007.7 hPa | 1.78 mm | 0.89 m/s, 286° | 0 W/m² | - |
| 1778026868 | 10.56° C | 86% | 1007.8 hPa | 1.78 mm | 0.45 m/s, 308° | 0 W/m² | - |
| 1778026564 | 10.56° C | 84% | 1007.5 hPa | 2.29 mm | 0.89 m/s, 276° | 0 W/m² | - |
| 1778026262 | 10.56° C | 82% | 1007.5 hPa | 3.05 mm | 0.45 m/s, 223° | 0 W/m² | - |
| 1778025959 | 11.11° C | 80% | 1007.5 hPa | 3.56 mm | 1.79 m/s, 311° | 1 W/m² | - |
| 1778025657 | 11.67° C | 77% | 1007.5 hPa | 3.05 mm | 2.24 m/s, 286° | 1 W/m² | - |
| 1778025355 | 12.22° C | 72% | 1007.3 hPa | 1.78 mm | 4.47 m/s, 6° | 1 W/m² | - |
* Rain latest hour (hover to see other rain measurements)
** Current wind speed in m/s (hover to see current wind gust speed)